1209100021,2008,12,04,00,99
1209100021,2008,12,04,01,99
1209100021,2008,12,04,02,99
1209100021,2008,12,04,03,99
1209100021,2008,12,04,04,99
1209100021,2008,12,04,05,99
1209100021,2008,12,04,06,99
1209100021,2008,12,04,07,99
1209100021,2008,12,04,08,99
1209100021,2008,12,04,09,99
1209100021,2008,12,04,10,99
1209100021,2008,12,04,11,99
1209100021,2008,12,04,12,99
1209100021,2008,12,04,13,0.038
1209100021,2008,12,04,14,0.036
1209100021,2008,12,04,15,0.033
1209100021,2008,12,04,16,0.029
1209100021,2008,12,04,17,0.027
1209100021,2008,12,04,18,0.02
1209100021,2008,12,04,19,0.024
1209100021,2008,12,04,20,0.025
1209100021,2008,12,04,21,0.022
1209100021,2008,12,04,22,0.022
1209100021,2008,12,04,23,0.011
1209100021,2008,12,05,00,0.011
1209100021,2008,12,05,01,0.011
1209100021,2008,12,05,02,0.007
1209100021,2008,12,05,03,0.009
1209100021,2008,12,05,04,0.014
1209100021,2008,12,05,05,0.013
1209100021,2008,12,05,06,0.011
1209100021,2008,12,05,07,0.01
1209100021,2008,12,05,08,0.016
1209100021,2008,12,05,09,0.021
1209100021,2008,12,05,10,0.026
1209100021,2008,12,05,11,0.026
1209100021,2008,12,05,12,0.027
1209100021,2008,12,05,13,0.03
1209100021,2008,12,05,14,0.032
1209100021,2008,12,05,15,0.035
1209100021,2008,12,05,16,0.031
1209100021,2008,12,05,17,0.018
1209100021,2008,12,05,18,0.023
1209100021,2008,12,05,19,0.022
1209100021,2008,12,05,20,0.022
1209100021,2008,12,05,21,0.022
1209100021,2008,12,05,22,0.024
1209100021,2008,12,05,23,0.021
1209100021,2008,12,06,00,0.021
1209100021,2008,12,06,01,0.019
1209100021,2008,12,06,02,0.019
1209100021,2008,12,06,03,0.018
1209100021,2008,12,06,04,0.014
1209100021,2008,12,06,05,0.009
1209100021,2008,12,06,06,0.007
1209100021,2008,12,06,07,0.01
1209100021,2008,12,06,08,0.015
1209100021,2008,12,06,09,0.016
1209100021,2008,12,06,10,0.022
1209100021,2008,12,06,11,0.033
1209100021,2008,12,06,12,0.032
1209100021,2008,12,06,13,0.033
1209100021,2008,12,06,14,0.033
1209100021,2008,12,06,15,0.032
1209100021,2008,12,06,16,0.026
1209100021,2008,12,06,17,0.019
1209100021,2008,12,06,18,0.017
1209100021,2008,12,06,19,0.02
1209100021,2008,12,06,20,0.018
1209100021,2008,12,06,21,0.016
1209100021,2008,12,06,22,0.018
1209100021,2008,12,06,23,0.018
1209100021,2008,12,07,00,0.024
1209100021,2008,12,07,01,0.026
1209100021,2008,12,07,02,0.025
1209100021,2008,12,07,03,0.023
1209100021,2008,12,07,04,0.022
1209100021,2008,12,07,05,0.017
1209100021,2008,12,07,06,0.011
1209100021,2008,12,07,07,0.014
1209100021,2008,12,07,08,0.024
1209100021,2008,12,07,09,0.028
1209100021,2008,12,07,10,0.03
1209100021,2008,12,07,11,0.032
1209100021,2008,12,07,12,0.034
1209100021,2008,12,07,13,0.037
1209100021,2008,12,07,14,0.042
1209100021,2008,12,07,15,0.051
1209100021,2008,12,07,16,0.037
1209100021,2008,12,07,17,0.015
1209100021,2008,12,07,18,0.006
1209100021,2008,12,07,19,0.003
1209100021,2008,12,07,20,0.005
1209100021,2008,12,07,21,0.005
1209100021,2008,12,07,22,0.002
1209100021,2008,12,07,23,0.004
1209100021,2008,12,08,00,0.006
1209100021,2008,12,08,01,0.005
1209100021,2008,12,08,02,0.01
1209100021,2008,12,08,03,0.012
1209100021,2008,12,08,04,0.016
1209100021,2008,12,08,05,0.016
1209100021,2008,12,08,06,0.018
1209100021,2008,12,08,07,0.021
1209100021,2008,12,08,08,0.024
1209100021,2008,12,08,09,0.029
1209100021,2008,12,08,10,0.034
1209100021,2008,12,08,11,0.035
1209100021,2008,12,08,12,0.037
1209100021,2008,12,08,13,0.043
1209100021,2008,12,08,14,0.044
1209100021,2008,12,08,15,0.041
1209100021,2008,12,08,16,0.04
1209100021,2008,12,08,17,0.041
1209100021,2008,12,08,18,0.043
1209100021,2008,12,08,19,0.038
1209100021,2008,12,08,20,0.034
1209100021,2008,12,08,21,0.03
1209100021,2008,12,08,22,0.032
1209100021,2008,12,08,23,0.033
1209100021,2008,12,09,00,0.025
1209100021,2008,12,09,01,0.027
1209100021,2008,12,09,02,0.035
1209100021,2008,12,09,03,0.032
1209100021,2008,12,09,04,0.031
1209100021,2008,12,09,05,0.026
1209100021,2008,12,09,06,0.024
1209100021,2008,12,09,07,0.022
1209100021,2008,12,09,08,0.021
1209100021,2008,12,09,09,0.032
1209100021,2008,12,09,10,0.038
1209100021,2008,12,09,11,0.04
1209100021,2008,12,09,12,0.038
1209100021,2008,12,09,13,0.036
1209100021,2008,12,09,14,0.035
1209100021,2008,12,09,15,0.034
1209100021,2008,12,09,16,0.034
1209100021,2008,12,09,17,0.034
1209100021,2008,12,09,18,0.034
1209100021,2008,12,09,19,0.034
1209100021,2008,12,09,20,0.033
1209100021,2008,12,09,21,0.033
1209100021,2008,12,09,22,0.033
1209100021,2008,12,09,23,0.033
1209100021,2008,12,10,00,0.033
1209100021,2008,12,10,01,0.032
1209100021,2008,12,10,02,0.032
1209100021,2008,12,10,03,0.031
1209100021,2008,12,10,04,0.031
1209100021,2008,12,10,05,0.03
1209100021,2008,12,10,06,0.028
1209100021,2008,12,10,07,0.027
1209100021,2008,12,10,08,0.026
1209100021,2008,12,10,09,0.025
1209100021,2008,12,10,10,99
1209100021,2008,12,10,11,99
1209100021,2008,12,10,12,0.022
1209100021,2008,12,10,13,0.02
1209100021,2008,12,10,14,0.021
1209100021,2008,12,10,15,0.021
1209100021,2008,12,10,16,0.021
1209100021,2008,12,10,17,0.02
1209100021,2008,12,10,18,0.02
1209100021,2008,12,10,19,0.022
1209100021,2008,12,10,20,0.024
1209100021,2008,12,10,21,0.025
1209100021,2008,12,10,22,0.026
1209100021,2008,12,10,23,0.027
1209100021,2008,12,11,00,0.028
1209100021,2008,12,11,01,0.021
1209100021,2008,12,11,02,0.001
1209100021,2008,12,11,03,0.001
1209100021,2008,12,11,04,0.003
1209100021,2008,12,11,05,0.005
1209100021,2008,12,11,06,0.007
1209100021,2008,12,11,07,0.014
1209100021,2008,12,11,08,0.015
1209100021,2008,12,11,09,0.019
1209100021,2008,12,11,10,0.016
1209100021,2008,12,11,11,0.016
1209100021,2008,12,11,12,0.016
1209100021,2008,12,11,13,0.015
1209100021,2008,12,11,14,0.015
1209100021,2008,12,11,15,0.013
1209100021,2008,12,11,16,0.012
1209100021,2008,12,11,17,0.01
1209100021,2008,12,11,18,0.009
1209100021,2008,12,11,19,0.008
1209100021,2008,12,11,20,0.007
1209100021,2008,12,11,21,0.007
1209100021,2008,12,11,22,0.008
1209100021,2008,12,11,23,0.011
1209100021,2008,12,12,00,0.015
1209100021,2008,12,12,01,0.022
1209100021,2008,12,12,02,0.024
1209100021,2008,12,12,03,0.022
1209100021,2008,12,12,04,0.02
1209100021,2008,12,12,05,0.017
1209100021,2008,12,12,06,0.012
1209100021,2008,12,12,07,0.014
1209100021,2008,12,12,08,0.017
1209100021,2008,12,12,09,0.021
1209100021,2008,12,12,10,0.024
1209100021,2008,12,12,11,0.025
1209100021,2008,12,12,12,0.029
1209100021,2008,12,12,13,0.031
1209100021,2008,12,12,14,0.03
1209100021,2008,12,12,15,0.028
1209100021,2008,12,12,16,0.02
1209100021,2008,12,12,17,0.009
1209100021,2008,12,12,18,0.016
1209100021,2008,12,12,19,0.019
1209100021,2008,12,12,20,0.013
1209100021,2008,12,12,21,0.01
1209100021,2008,12,12,22,0.014
1209100021,2008,12,12,23,0.014
1209100021,2008,12,13,00,0.015
1209100021,2008,12,13,01,0.017
1209100021,2008,12,13,02,0.018
1209100021,2008,12,13,03,0.02
1209100021,2008,12,13,04,0.019
1209100021,2008,12,13,05,0.016
1209100021,2008,12,13,06,0.017
1209100021,2008,12,13,07,0.019
1209100021,2008,12,13,08,0.026
1209100021,2008,12,13,09,0.025
1209100021,2008,12,13,10,0.028
1209100021,2008,12,13,11,0.029
1209100021,2008,12,13,12,0.031
1209100021,2008,12,13,13,0.032
1209100021,2008,12,13,14,0.032
1209100021,2008,12,13,15,0.03
1209100021,2008,12,13,16,0.027
1209100021,2008,12,13,17,0.021
1209100021,2008,12,13,18,0.012
1209100021,2008,12,13,19,0.016
1209100021,2008,12,13,20,0.016
1209100021,2008,12,13,21,0.019
1209100021,2008,12,13,22,0.016
1209100021,2008,12,13,23,0.019
1209100021,2008,12,14,00,0.016
1209100021,2008,12,14,01,0.017
1209100021,2008,12,14,02,0.019
1209100021,2008,12,14,03,0.023
1209100021,2008,12,14,04,0.025
1209100021,2008,12,14,05,0.026
1209100021,2008,12,14,06,0.027
1209100021,2008,12,14,07,0.026
1209100021,2008,12,14,08,0.027
1209100021,2008,12,14,09,0.029
1209100021,2008,12,14,10,0.032
1209100021,2008,12,14,11,0.035
1209100021,2008,12,14,12,0.035
1209100021,2008,12,14,13,0.036
1209100021,2008,12,14,14,0.038
1209100021,2008,12,14,15,0.038
1209100021,2008,12,14,16,0.038
1209100021,2008,12,14,17,0.039
1209100021,2008,12,14,18,0.04
1209100021,2008,12,14,19,0.039
1209100021,2008,12,14,20,0.032
1209100021,2008,12,14,21,0.031
1209100021,2008,12,14,22,0.033
1209100021,2008,12,14,23,0.031
1209100021,2008,12,15,00,0.03
1209100021,2008,12,15,01,0.029
1209100021,2008,12,15,02,0.028
1209100021,2008,12,15,03,0.026
1209100021,2008,12,15,04,0.025
1209100021,2008,12,15,05,0.024
1209100021,2008,12,15,06,0.02
1209100021,2008,12,15,07,0.021
1209100021,2008,12,15,08,0.024
1209100021,2008,12,15,09,0.028
1209100021,2008,12,15,10,0.029
1209100021,2008,12,15,11,0.029
1209100021,2008,12,15,12,0.031
1209100021,2008,12,15,13,99
1209100021,2008,12,15,14,0.033
1209100021,2008,12,15,15,0.033
1209100021,2008,12,15,16,0.032
1209100021,2008,12,15,17,0.031
1209100021,2008,12,15,18,0.027
1209100021,2008,12,15,19,0.025
1209100021,2008,12,15,20,0.026
1209100021,2008,12,15,21,0.026
1209100021,2008,12,15,22,0.027
1209100021,2008,12,15,23,0.031
1209100021,2008,12,16,00,0.032
1209100021,2008,12,16,01,0.031
1209100021,2008,12,16,02,0.028
1209100021,2008,12,16,03,0.031
1209100021,2008,12,16,04,0.029
1209100021,2008,12,16,05,0.028
1209100021,2008,12,16,06,0.026
1209100021,2008,12,16,07,0.025
1209100021,2008,12,16,08,0.023
1209100021,2008,12,16,09,0.026
1209100021,2008,12,16,10,0.027
1209100021,2008,12,16,11,0.027
1209100021,2008,12,16,12,0.026
1209100021,2008,12,16,13,0.026
1209100021,2008,12,16,14,0.029
1209100021,2008,12,16,15,0.028
1209100021,2008,12,16,16,0.029
1209100021,2008,12,16,17,0.029
1209100021,2008,12,16,18,0.027
1209100021,2008,12,16,19,0.027
1209100021,2008,12,16,20,0.024
1209100021,2008,12,16,21,0.028
1209100021,2008,12,16,22,0.029
1209100021,2008,12,16,23,0.028
1209100021,2008,12,17,00,0.027
1209100021,2008,12,17,01,0.027
1209100021,2008,12,17,02,0.027
1209100021,2008,12,17,03,0.026
1209100021,2008,12,17,04,0.022
1209100021,2008,12,17,05,0.011
1209100021,2008,12,17,06,0.016
1209100021,2008,12,17,07,0.012
1209100021,2008,12,17,08,0.016
1209100021,2008,12,17,09,0.032
1209100021,2008,12,17,10,0.033
1209100021,2008,12,17,11,0.033
1209100021,2008,12,17,12,0.033
1209100021,2008,12,17,13,0.031
1209100021,2008,12,17,14,0.032
1209100021,2008,12,17,15,0.033
1209100021,2008,12,17,16,0.031
1209100021,2008,12,17,17,0.029
1209100021,2008,12,17,18,0.025
1209100021,2008,12,17,19,0.016
1209100021,2008,12,17,20,0.019
1209100021,2008,12,17,21,0.027
1209100021,2008,12,17,22,0.011
1209100021,2008,12,17,23,0.001
1209100021,2008,12,18,00,0.005
1209100021,2008,12,18,01,0.008
1209100021,2008,12,18,02,0.011
1209100021,2008,12,18,03,0.01
1209100021,2008,12,18,04,0.013
1209100021,2008,12,18,05,0.017
1209100021,2008,12,18,06,0.014
1209100021,2008,12,18,07,0.01
1209100021,2008,12,18,08,0.009
1209100021,2008,12,18,09,0.013
1209100021,2008,12,18,10,0.017
1209100021,2008,12,18,11,0.019
1209100021,2008,12,18,12,0.02
1209100021,2008,12,18,13,0.026
1209100021,2008,12,18,14,0.024
1209100021,2008,12,18,15,0.024
1209100021,2008,12,18,16,0.027
1209100021,2008,12,18,17,0.032
1209100021,2008,12,18,18,0.026
1209100021,2008,12,18,19,0.017
1209100021,2008,12,18,20,0.02
1209100021,2008,12,18,21,0.024
1209100021,2008,12,18,22,0.019
1209100021,2008,12,18,23,0.009
1209100021,2008,12,19,00,0.007
1209100021,2008,12,19,01,0.008
1209100021,2008,12,19,02,0.008
1209100021,2008,12,19,03,0.015
1209100021,2008,12,19,04,0.011
1209100021,2008,12,19,05,0.013
1209100021,2008,12,19,06,0.011
1209100021,2008,12,19,07,0.009
1209100021,2008,12,19,08,0.013
1209100021,2008,12,19,09,0.032
1209100021,2008,12,19,10,0.036
1209100021,2008,12,19,11,0.035
1209100021,2008,12,19,12,0.035
1209100021,2008,12,19,13,0.035
1209100021,2008,12,19,14,0.032
1209100021,2008,12,19,15,0.031
1209100021,2008,12,19,16,0.026
1209100021,2008,12,19,17,0.019
1209100021,2008,12,19,18,0.02
1209100021,2008,12,19,19,0.024
1209100021,2008,12,19,20,0.018
1209100021,2008,12,19,21,0.022
1209100021,2008,12,19,22,0.025
1209100021,2008,12,19,23,0.029
1209100021,2008,12,20,00,0.019
1209100021,2008,12,20,01,0.006
1209100021,2008,12,20,02,0.003
1209100021,2008,12,20,03,0.015
1209100021,2008,12,20,04,0.023
1209100021,2008,12,20,05,0.025
1209100021,2008,12,20,06,0.024
1209100021,2008,12,20,07,0.024
1209100021,2008,12,20,08,0.023
1209100021,2008,12,20,09,0.025
1209100021,2008,12,20,10,0.025
1209100021,2008,12,20,11,0.025
1209100021,2008,12,20,12,0.028
1209100021,2008,12,20,13,0.028
1209100021,2008,12,20,14,0.028
1209100021,2008,12,20,15,0.027
1209100021,2008,12,20,16,0.025
1209100021,2008,12,20,17,0.022
1209100021,2008,12,20,18,0.021
1209100021,2008,12,20,19,0.021
1209100021,2008,12,20,20,0.024
1209100021,2008,12,20,21,0.027
1209100021,2008,12,20,22,0.027
1209100021,2008,12,20,23,0.028
1209100021,2008,12,21,00,0.029
1209100021,2008,12,21,01,0.031
1209100021,2008,12,21,02,0.029
1209100021,2008,12,21,03,0.028
1209100021,2008,12,21,04,0.027
1209100021,2008,12,21,05,0.025
1209100021,2008,12,21,06,0.023
1209100021,2008,12,21,07,0.026
1209100021,2008,12,21,08,0.03
1209100021,2008,12,21,09,0.028
1209100021,2008,12,21,10,0.018
1209100021,2008,12,21,11,0.015
1209100021,2008,12,21,12,0.019
1209100021,2008,12,21,13,0.021
1209100021,2008,12,21,14,0.024
1209100021,2008,12,21,15,0.032
1209100021,2008,12,21,16,0.033
1209100021,2008,12,21,17,0.03
1209100021,2008,12,21,18,0.029
1209100021,2008,12,21,19,0.031
1209100021,2008,12,21,20,0.032
1209100021,2008,12,21,21,0.032
1209100021,2008,12,21,22,0.036
1209100021,2008,12,21,23,0.034
1209100021,2008,12,22,00,0.033
1209100021,2008,12,22,01,0.034
1209100021,2008,12,22,02,0.033
1209100021,2008,12,22,03,0.031
1209100021,2008,12,22,04,0.029
1209100021,2008,12,22,05,0.027
1209100021,2008,12,22,06,0.024
1209100021,2008,12,22,07,0.024
1209100021,2008,12,22,08,0.027
1209100021,2008,12,22,09,0.029
1209100021,2008,12,22,10,0.03
1209100021,2008,12,22,11,0.032
1209100021,2008,12,22,12,0.033
1209100021,2008,12,22,13,0.034
1209100021,2008,12,22,14,0.036
1209100021,2008,12,22,15,0.036
1209100021,2008,12,22,16,0.033
1209100021,2008,12,22,17,0.026
1209100021,2008,12,22,18,0.029
1209100021,2008,12,22,19,0.03
1209100021,2008,12,22,20,0.029
1209100021,2008,12,22,21,0.028
1209100021,2008,12,22,22,0.027
1209100021,2008,12,22,23,0.026
1209100021,2008,12,23,00,0.028
1209100021,2008,12,23,01,0.027
1209100021,2008,12,23,02,0.026
1209100021,2008,12,23,03,0.026
1209100021,2008,12,23,04,0.026
1209100021,2008,12,23,05,0.025
1209100021,2008,12,23,06,0.024
1209100021,2008,12,23,07,0.025
1209100021,2008,12,23,08,0.029
1209100021,2008,12,23,09,0.028
1209100021,2008,12,23,10,0.029
1209100021,2008,12,23,11,0.03
1209100021,2008,12,23,12,99
1209100021,2008,12,23,13,0.034
1209100021,2008,12,23,14,0.037
1209100021,2008,12,23,15,0.041
1209100021,2008,12,23,16,0.041
1209100021,2008,12,23,17,0.042
1209100021,2008,12,23,18,0.043
1209100021,2008,12,23,19,0.043
1209100021,2008,12,23,20,0.045
1209100021,2008,12,23,21,0.045
1209100021,2008,12,23,22,0.046
1209100021,2008,12,23,23,0.047
1209100021,2008,12,24,00,0.045
1209100021,2008,12,24,01,0.042
1209100021,2008,12,24,02,0.039
1209100021,2008,12,24,03,0.036
1209100021,2008,12,24,04,0.031
1209100021,2008,12,24,05,0.039
1209100021,2008,12,24,06,0.04
1209100021,2008,12,24,07,0.038
1209100021,2008,12,24,08,0.03
1209100021,2008,12,24,09,0.033
1209100021,2008,12,24,10,0.036
1209100021,2008,12,24,11,0.035
1209100021,2008,12,24,12,0.033
1209100021,2008,12,24,13,0.032
1209100021,2008,12,24,14,0.031
1209100021,2008,12,24,15,0.03
1209100021,2008,12,24,16,0.028
1209100021,2008,12,24,17,0.028
1209100021,2008,12,24,18,0.027
1209100021,2008,12,24,19,0.025
1209100021,2008,12,24,20,0.025
1209100021,2008,12,24,21,0.025
1209100021,2008,12,24,22,0.025
1209100021,2008,12,24,23,0.024
1209100021,2008,12,25,00,0.024
1209100021,2008,12,25,01,0.025
1209100021,2008,12,25,02,0.025
1209100021,2008,12,25,03,0.024
1209100021,2008,12,25,04,0.025
1209100021,2008,12,25,05,0.018
1209100021,2008,12,25,06,0.015
1209100021,2008,12,25,07,0.017
1209100021,2008,12,25,08,0.026
1209100021,2008,12,25,09,0.026
1209100021,2008,12,25,10,0.025
1209100021,2008,12,25,11,0.025
1209100021,2008,12,25,12,0.026
1209100021,2008,12,25,13,0.026
1209100021,2008,12,25,14,0.027
1209100021,2008,12,25,15,0.027
1209100021,2008,12,25,16,0.027
1209100021,2008,12,25,17,0.028
1209100021,2008,12,25,18,0.029
1209100021,2008,12,25,19,0.026
1209100021,2008,12,25,20,0.019
1209100021,2008,12,25,21,0.022
1209100021,2008,12,25,22,0.023
1209100021,2008,12,25,23,0.023
1209100021,2008,12,26,00,0.023
1209100021,2008,12,26,01,0.022
1209100021,2008,12,26,02,0.025
1209100021,2008,12,26,03,0.025
1209100021,2008,12,26,04,0.023
1209100021,2008,12,26,05,0.022
1209100021,2008,12,26,06,0.021
1209100021,2008,12,26,07,0.019
1209100021,2008,12,26,08,0.019
1209100021,2008,12,26,09,0.018
1209100021,2008,12,26,10,0.016
1209100021,2008,12,26,11,0.018
1209100021,2008,12,26,12,0.021
1209100021,2008,12,26,13,0.024
1209100021,2008,12,26,14,0.026
1209100021,2008,12,26,15,0.024
1209100021,2008,12,26,16,0.024
1209100021,2008,12,26,17,0.023
1209100021,2008,12,26,18,0.024
1209100021,2008,12,26,19,0.026
1209100021,2008,12,26,20,0.029
1209100021,2008,12,26,21,0.028
1209100021,2008,12,26,22,0.03
1209100021,2008,12,26,23,0.029
1209100021,2008,12,27,00,0.03
1209100021,2008,12,27,01,0.028
1209100021,2008,12,27,02,0.03
1209100021,2008,12,27,03,0.032
1209100021,2008,12,27,04,0.026
1209100021,2008,12,27,05,0.023
1209100021,2008,12,27,06,0.022
1209100021,2008,12,27,07,0.021
1209100021,2008,12,27,08,0.022
1209100021,2008,12,27,09,0.023
1209100021,2008,12,27,10,0.026
1209100021,2008,12,27,11,0.029
1209100021,2008,12,27,12,0.031
1209100021,2008,12,27,13,0.031
1209100021,2008,12,27,14,0.032
1209100021,2008,12,27,15,0.031
1209100021,2008,12,27,16,0.03
1209100021,2008,12,27,17,0.031
1209100021,2008,12,27,18,0.03
1209100021,2008,12,27,19,0.029
1209100021,2008,12,27,20,0.029
1209100021,2008,12,27,21,0.029
1209100021,2008,12,27,22,0.03
1209100021,2008,12,27,23,0.029
1209100021,2008,12,28,00,0.03
1209100021,2008,12,28,01,0.03
1209100021,2008,12,28,02,0.03
1209100021,2008,12,28,03,0.029
1209100021,2008,12,28,04,0.027
1209100021,2008,12,28,05,0.028
1209100021,2008,12,28,06,0.028
1209100021,2008,12,28,07,0.024
1209100021,2008,12,28,08,0.027
1209100021,2008,12,28,09,0.029
1209100021,2008,12,28,10,0.029
1209100021,2008,12,28,11,0.028
1209100021,2008,12,28,12,0.027
1209100021,2008,12,28,13,0.028
1209100021,2008,12,28,14,0.03
1209100021,2008,12,28,15,0.029
1209100021,2008,12,28,16,0.028
1209100021,2008,12,28,17,0.027
1209100021,2008,12,28,18,0.027
1209100021,2008,12,28,19,0.024
1209100021,2008,12,28,20,0.023
1209100021,2008,12,28,21,0.017
1209100021,2008,12,28,22,0.014
1209100021,2008,12,28,23,0.015
1209100021,2008,12,29,00,0.014
1209100021,2008,12,29,01,0.012
1209100021,2008,12,29,02,0.009
1209100021,2008,12,29,03,0.01
1209100021,2008,12,29,04,0.013
1209100021,2008,12,29,05,0.013
1209100021,2008,12,29,06,0.011
1209100021,2008,12,29,07,0.011
1209100021,2008,12,29,08,0.013
1209100021,2008,12,29,09,0.014
1209100021,2008,12,29,10,0.019
1209100021,2008,12,29,11,0.028
1209100021,2008,12,29,12,0.03
1209100021,2008,12,29,13,0.031
1209100021,2008,12,29,14,0.032
1209100021,2008,12,29,15,0.032
1209100021,2008,12,29,16,0.025
1209100021,2008,12,29,17,0.019
1209100021,2008,12,29,18,0.025
1209100021,2008,12,29,19,0.024
1209100021,2008,12,29,20,0.02
1209100021,2008,12,29,21,0.024
1209100021,2008,12,29,22,0.026
1209100021,2008,12,29,23,0.024
1209100021,2008,12,30,00,0.023
1209100021,2008,12,30,01,0.023
1209100021,2008,12,30,02,0.02
1209100021,2008,12,30,03,0.017
1209100021,2008,12,30,04,0.015
1209100021,2008,12,30,05,0.007
1209100021,2008,12,30,06,0.001
1209100021,2008,12,30,07,0.005
1209100021,2008,12,30,08,0.018
1209100021,2008,12,30,09,0.028
1209100021,2008,12,30,10,0.034
1209100021,2008,12,30,11,0.037
1209100021,2008,12,30,12,0.04
1209100021,2008,12,30,13,0.044
1209100021,2008,12,30,14,0.043
1209100021,2008,12,30,15,0.042
1209100021,2008,12,30,16,0.033
1209100021,2008,12,30,17,0.011
1209100021,2008,12,30,18,0
1209100021,2008,12,30,19,0
1209100021,2008,12,30,20,0
1209100021,2008,12,30,21,0
1209100021,2008,12,30,22,0
1209100021,2008,12,30,23,0
1209100021,2008,12,31,00,0
1209100021,2008,12,31,01,0.005
1209100021,2008,12,31,02,0.019
1209100021,2008,12,31,03,0.027
1209100021,2008,12,31,04,0.028
1209100021,2008,12,31,05,0.022
1209100021,2008,12,31,06,0.017
1209100021,2008,12,31,07,0.02
1209100021,2008,12,31,08,0.027
1209100021,2008,12,31,09,0.029
1209100021,2008,12,31,10,0.032
1209100021,2008,12,31,11,0.034
1209100021,2008,12,31,12,0.039
1209100021,2008,12,31,13,0.044
1209100021,2008,12,31,14,0.051
1209100021,2008,12,31,15,0.044
1209100021,2008,12,31,16,0.035
1209100021,2008,12,31,17,0.029
1209100021,2008,12,31,18,0.023
1209100021,2008,12,31,19,0.027
1209100021,2008,12,31,20,0.029
1209100021,2008,12,31,21,0.029
1209100021,2008,12,31,22,0.028
1209100021,2008,12,31,23,0.027
